星链-33615 (STARLINK-33615)

导读

STARLINK-33615是美国SpaceX公司星链(Starlink)星座的第二代成员,于2025年3月31日发射入轨。它属于低轨通信卫星,运行于340-614公里近地轨道,配备增强型相控阵天线与激光星间链路,采用氪离子推进系统,支持Ku/Ka/E多频段通信,单星容量超100Gbps,可为全球用户提供百兆至千兆级低延迟宽带互联网服务,是星链大规模扩展全球覆盖的重要组网卫星。

Basic Information
目录编号:
63426
目录名称:
STARLINK-33615
国际标识:
2025-065AD
轨道中心:
EARTH
卫星名称:
星链-33615
卫星全名:
星链-33615 (STARLINK-33615)
卫星状态:
在轨 (已飞行440 天)
发射日期:
2025-03-31 UTC
国别 :
美国 (US)
星等 :
--
Orbit Information
数据来源 国际轨道数据 AOE轨道数据
星历时间 2026-06-14T03:01:18+0800
14小时前
查看轨道信息
2026-06-08T02:00:00+0800
6天前
查看轨道信息
半长轴 6861.148km 6861.192km
偏心率 0.0000395 0.0000056
轨道倾角 43.002° 43.006°
近地点辐角 319.472° 184.656°
升交点赤经 284.624° 318.744°
平近点角 40.610° 26.691°
近地点 482.739km 483.016km
远地点 483.283km 483.094km
周期 94.266分钟 94.267分钟
每日圈数 15.27593 15.275783
Detailed Information
固有亮度:
5
最大亮度:
2.5
卫星平台:
Starlink V1.0
覆盖范围:
全球
运营商:
太空探索技术公司
运营商所在国:
美国
制造商(研发单位):
太空探索技术公司
制造商所在国:
美国
使用方式:
暂无
Satellite Introduction
Starlink 计划是 SpaceX 推出的全球卫星互联网项目,通过发射低轨道卫星,为全球尤其是偏远地区提供高速、低延迟的互联网服务。自 2019 年起,Starlink 已部署数千颗卫星,旨在缩小全球数字鸿沟,推动互联网普及。该项目还为军事、航空等行业提供通信支持,带来广泛经济效益。
2D Orbit Map
3D Orbit Map
Orbit Altitude Analysis Chart
Orbit Inclination Analysis Chart
Orbit Comprehensive Analysis Chart
View Comprehensive Chart